Location: Marcé
(47.5801°N, 0.3280°W)
Time: 20:15:55
(UTC+01:00)

Tiros 1 despin weight - Pass Details

Date: 18 December 2021
Orbit: 592 x 641 km, 48.2° (Epoch: 16 January)

Event Time Altitude Azimuth Distance (km) Brightness Sun altitude
Rises 15:02:59 0° 281° (W) 2,844 ? 13.7°
Reaches altitude 10° 15:05:57 10° 261° (W) 1,930 ? 13.4°
Maximum altitude 15:08:46 17° 221° (SW) 1,532 ? 13.2°
Drops below altitude 10° 15:11:34 10° 181° (S) 1,915 ? 12.9°
Sets 15:14:30 0° 161° (SSE) 2,809 ? 12.7°
